| time (UTC) | temp F | wind direction | speed knots | gust knots | rain 1hr in | rain 24hr in | rain mn in | humidity % | barometer mb |
| 20260509134507 | 59 | 286 | 2.6 | 9.6 | 0.00 | 0.00 | 0.00 | 72 | 1002.3 |
| 20260509133004 | 58 | 275 | 2.6 | 8.7 | 0.00 | 0.00 | 0.00 | 74 | 1002.3 |
| 20260509131603 | 57 | 278 | 4.3 | 13.9 | 0.00 | 0.00 | 0.00 | 75 | 1002.7 |
| 20260509130108 | 56 | 268 | 4.3 | 10.4 | 0.00 | 0.00 | 0.00 | 76 | 1002.6 |
| 20260509124611 | 56 | 260 | 1.7 | 7.8 | 0.00 | 0.00 | 0.00 | 77 | 1002.5 |
| 20260509123059 | 55 | 264 | 3.5 | 8.7 | 0.00 | 0.00 | 0.00 | 78 | 1002.6 |
| 20260509121612 | 55 | 259 | 4.3 | 13.0 | 0.00 | 0.00 | 0.00 | 79 | 1002.4 |
| 20260509120057 | 54 | 273 | 2.6 | 7.8 | 0.00 | 0.00 | 0.00 | 80 | 1002.6 |
| 20260509114556 | 54 | 257 | 3.5 | 8.7 | 0.00 | 0.00 | 0.00 | 81 | 1002.4 |
| 20260509113058 | 54 | 233 | 1.7 | 7.0 | 0.00 | 0.00 | 0.00 | 81 | 1002.2 |
| 20260509111603 | 54 | 223 | 2.6 | 6.1 | 0.00 | 0.00 | 0.00 | 81 | 1002.2 |
| 20260509110054 | 54 | 283 | 3.5 | 8.7 | 0.00 | 0.00 | 0.00 | 80 | 1002.1 |
| 20260509104552 | 54 | 248 | 3.5 | 7.8 | 0.00 | 0.01 | 0.00 | 80 | 1001.9 |
| 20260509101550 | 54 | 212 | 3.5 | 7.0 | 0.00 | 0.01 | 0.00 | 81 | 1001.8 |
| 20260509100044 | 53 | 251 | 1.7 | 5.2 | 0.00 | 0.01 | 0.00 | 81 | 1002.1 |
| 20260509094543 | 54 | 207 | 1.7 | 5.2 | 0.00 | 0.01 | 0.00 | 81 | 1002.3 |
| 20260509093041 | 53 | 250 | 0.9 | 4.3 | 0.00 | 0.01 | 0.00 | 82 | 1002.6 |
| 20260509091540 | 53 | 260 | 1.7 | 6.1 | 0.00 | 0.01 | 0.00 | 82 | 1002.7 |
| 20260509090044 | 53 | 212 | 2.6 | 6.1 | 0.00 | 0.01 | 0.00 | 82 | 1002.5 |
| 20260509084542 | 53 | 278 | 1.7 | 5.2 | 0.00 | 0.01 | 0.00 | 82 | 1002.7 |
| 20260509083046 | 53 | 255 | 0.9 | 7.0 | 0.00 | 0.01 | 0.00 | 81 | 1002.7 |
| 20260509081535 | 53 | 222 | 1.7 | 7.8 | 0.00 | 0.01 | 0.00 | 81 | 1002.6 |
| 20260509080034 | 54 | 224 | 2.6 | 7.8 | 0.00 | 0.01 | 0.00 | 80 | 1002.6 |
| 20260509074532 | 54 | 239 | 1.7 | 7.0 | 0.00 | 0.01 | 0.00 | 80 | 1002.7 |
| 20260509073029 | 54 | 259 | 1.7 | 6.1 | 0.00 | 0.01 | 0.00 | 79 | 1002.9 |
| 20260509071526 | 54 | 260 | 0.9 | 5.2 | 0.00 | 0.01 | 0.00 | 78 | 1003.1 |
| 20260509070025 | 55 | 276 | 1.7 | 7.0 | 0.00 | 0.01 | 0.00 | 77 | 1003.4 |
| 20260509064522 | 55 | 194 | 2.6 | 7.0 | 0.00 | 0.01 | 0.00 | 77 | 1003.5 |
| 20260509063021 | 55 | 257 | 2.6 | 7.8 | 0.00 | 0.01 | 0.00 | 76 | 1003.7 |
| 20260509061522 | 56 | 228 | 1.7 | 9.6 | 0.00 | 0.01 | 0.00 | 76 | 1003.7 |
| 20260509060017 | 56 | 242 | 5.2 | 8.7 | 0.00 | 0.01 | 0.00 | 76 | 1004.0 |
| 20260509054515 | 56 | 232 | 3.5 | 7.8 | 0.00 | 0.01 | 0.00 | 76 | 1004.1 |
| 20260509053013 | 57 | 264 | 1.7 | 9.6 | 0.00 | 0.01 | 0.00 | 75 | 1004.0 |
| 20260509051511 | 57 | 269 | 3.5 | 9.6 | 0.00 | 0.01 | 0.00 | 74 | 1004.0 |
| 20260509050109 | 57 | 244 | 2.6 | 8.7 | 0.00 | 0.01 | 0.00 | 73 | 1004.1 |
| 20260509044508 | 57 | 205 | 1.7 | 7.8 | 0.00 | 0.01 | 0.01 | 72 | 1004.0 |
| 20260509043007 | 58 | 232 | 2.6 | 7.8 | 0.00 | 0.01 | 0.01 | 71 | 1004.1 |
| 20260509041507 | 58 | 218 | 4.3 | 12.2 | 0.00 | 0.01 | 0.01 | 69 | 1004.0 |
| 20260509040005 | 57 | 245 | 4.3 | 12.2 | 0.00 | 0.01 | 0.01 | 69 | 1004.0 |
| 20260509034505 | 57 | 209 | 0.9 | 7.0 | 0.00 | 0.01 | 0.01 | 69 | 1004.3 |
| 20260509033003 | 55 | 210 | 3.5 | 6.1 | 0.00 | 0.01 | 0.01 | 68 | 1004.2 |
| 20260509031502 | 55 | 208 | 1.7 | 4.3 | 0.00 | 0.01 | 0.01 | 67 | 1004.3 |
| 20260509030001 | 55 | 207 | 1.7 | 4.3 | 0.00 | 0.01 | 0.01 | 66 | 1004.4 |
| 20260509024501 | 55 | 133 | 0.0 | 1.7 | 0.00 | 0.01 | 0.01 | 65 | 1004.3 |
| 20260509023103 | 55 | 133 | 0.0 | 2.6 | 0.00 | 0.01 | 0.01 | 64 | 1004.5 |
| 20260509021600 | 56 | 131 | 0.9 | 2.6 | 0.00 | 0.01 | 0.01 | 64 | 1004.5 |
| 20260509020100 | 56 | 123 | 0.9 | 2.6 | 0.00 | 0.01 | 0.01 | 63 | 1004.6 |
| 20260509014602 | 57 | 132 | 0.9 | 4.3 | 0.00 | 0.01 | 0.01 | 62 | 1004.5 |
| 20260509013105 | 57 | 107 | 0.9 | 3.5 | 0.00 | 0.01 | 0.01 | 62 | 1004.5 |
| 20260509011558 | 58 | 130 | 2.6 | 7.0 | 0.00 | 0.01 | 0.01 | 62 | 1004.4 |
| 20260509010058 | 59 | 119 | 2.6 | 7.0 | 0.00 | 0.01 | 0.01 | 61 | 1004.4 |
| 20260509004601 | 59 | 141 | 0.9 | 5.2 | 0.00 | 0.01 | 0.01 | 59 | 1004.3 |
| 20260509003055 | 60 | 136 | 1.7 | 4.3 | 0.00 | 0.01 | 0.01 | 58 | 1004.4 |
| 20260509001554 | 60 | 129 | 2.6 | 5.2 | 0.00 | 0.01 | 0.01 | 58 | 1004.5 |
| 20260509000055 | 60 | 109 | 2.6 | 5.2 | 0.00 | 0.01 | 0.01 | 57 | 1004.6 |
| 20260508234552 | 61 | 123 | 2.6 | 5.2 | 0.00 | 0.01 | 0.01 | 56 | 1004.7 |
| 20260508233057 | 61 | 80 | 2.6 | 6.1 | 0.00 | 0.01 | 0.01 | 56 | 1004.7 |
| 20260508231550 | 62 | 117 | 3.5 | 7.0 | 0.00 | 0.01 | 0.01 | 57 | 1004.8 |
| 20260508230057 | 62 | 110 | 4.3 | 8.7 | 0.00 | 0.01 | 0.01 | 57 | 1004.8 |
| 20260508224547 | 61 | 68 | 3.5 | 7.8 | 0.00 | 0.01 | 0.01 | 58 | 1004.9 |
| 20260508223045 | 62 | 124 | 3.5 | 7.8 | 0.00 | 0.01 | 0.01 | 57 | 1005.0 |
| 20260508221549 | 62 | 110 | 3.5 | 7.8 | 0.00 | 0.01 | 0.01 | 58 | 1004.9 |
| 20260508220045 | 61 | 86 | 5.2 | 8.7 | 0.00 | 0.01 | 0.01 | 60 | 1005.0 |
| 20260508214543 | 62 | 108 | 5.2 | 9.6 | 0.00 | 0.10 | 0.01 | 60 | 1005.2 |
| 20260508213040 | 62 | 92 | 4.3 | 7.8 | 0.00 | 0.10 | 0.01 | 60 | 1005.1 |
| 20260508211539 | 62 | 96 | 2.6 | 8.7 | 0.00 | 0.10 | 0.01 | 60 | 1005.2 |
| 20260508210038 | 62 | 104 | 7.0 | 10.4 | 0.00 | 0.10 | 0.01 | 57 | 1005.4 |
| 20260508204536 | 62 | 70 | 5.2 | 10.4 | 0.00 | 0.10 | 0.01 | 56 | 1005.4 |
| 20260508203034 | 63 | 68 | 5.2 | 10.4 | 0.00 | 0.10 | 0.01 | 53 | 1005.6 |
| 20260508201532 | 63 | 77 | 4.3 | 9.6 | 0.00 | 0.10 | 0.01 | 50 | 1005.8 |
| 20260508200038 | 62 | 59 | 2.6 | 10.4 | 0.00 | 0.10 | 0.01 | 52 | 1006.0 |
| 20260508194529 | 62 | 53 | 4.3 | 8.7 | 0.00 | 0.10 | 0.01 | 49 | 1006.2 |
| 20260508193028 | 62 | 101 | 5.2 | 10.4 | 0.00 | 0.10 | 0.01 | 47 | 1006.4 |
| 20260508191529 | 62 | 84 | 4.3 | 8.7 | 0.00 | 0.10 | 0.01 | 47 | 1006.5 |
| 20260508190025 | 63 | 77 | 4.3 | 8.7 | 0.00 | 0.10 | 0.01 | 47 | 1006.7 |
| 20260508184525 | 63 | 20 | 2.6 | 7.0 | 0.00 | 0.10 | 0.01 | 44 | 1006.8 |
| 20260508183021 | 64 | 127 | 4.3 | 8.7 | 0.00 | 0.10 | 0.01 | 43 | 1007.0 |
| 20260508181520 | 65 | 124 | 4.3 | 7.0 | 0.00 | 0.10 | 0.01 | 45 | 1007.1 |
| 20260508180019 | 65 | 133 | 2.6 | 7.0 | 0.00 | 0.10 | 0.01 | 41 | 1007.4 |
| 20260508174522 | 65 | 145 | 1.7 | 6.1 | 0.00 | 0.10 | 0.01 | 39 | 1007.7 |
| 20260508173014 | 64 | 96 | 4.3 | 6.1 | 0.00 | 0.10 | 0.01 | 36 | 1007.9 |
| 20260508171510 | 63 | 233 | 1.7 | 6.1 | 0.00 | 0.10 | 0.01 | 40 | 1008.1 |
| 20260508170007 | 63 | 65 | 1.7 | 6.1 | 0.00 | 0.10 | 0.01 | 41 | 1008.4 |
| 20260508164511 | 63 | 287 | 0.0 | 10.4 | 0.00 | 0.10 | 0.01 | 41 | 1008.5 |
| 20260508163001 | 62 | 118 | 0.9 | 4.3 | 0.00 | 0.10 | 0.01 | 41 | 1009.0 |
| 20260508161559 | 61 | 127 | 0.9 | 7.8 | 0.00 | 0.10 | 0.01 | 40 | 1009.1 |
| 20260508160058 | 61 | 226 | 1.7 | 4.3 | 0.00 | 0.10 | 0.01 | 45 | 1009.1 |
| 20260508154557 | 60 | 179 | 1.7 | 6.1 | 0.00 | 0.10 | 0.01 | 48 | 1009.3 |
| 20260508153051 | 60 | 166 | 2.6 | 5.2 | 0.00 | 0.10 | 0.01 | 50 | 1009.5 |
| 20260508151548 | 59 | 250 | 0.0 | 4.3 | 0.00 | 0.10 | 0.01 | 55 | 1009.5 |
| 20260508150046 | 58 | 236 | 1.7 | 4.3 | 0.00 | 0.10 | 0.01 | 58 | 1009.7 |
| 20260508144541 | 56 | 143 | 0.0 | 5.2 | 0.00 | 0.10 | 0.01 | 65 | 1009.6 |
| 20260508143039 | 56 | 168 | 0.9 | 4.3 | 0.00 | 0.10 | 0.01 | 67 | 1009.8 |
| 20260508141537 | 55 | 113 | 1.7 | 4.3 | 0.00 | 0.10 | 0.01 | 69 | 1009.8 |
| 20260508140032 | 53 | 75 | 0.0 | 3.5 | 0.00 | 0.10 | 0.01 | 75 | 1009.8 |